Time,TemperatureF,DewpointF,PressureIn,WindDirection,WindDirectionDegrees,WindSpeedMPH,WindSpeedGustMPH,Humidity,HourlyPrecipIn,Conditions,Clouds,dailyrainin,SoftwareType,DateUTC
2013-09-01 00:03:00,71.6,71.0,32.10,WNW,299,0.0,0.0,98,0.00,,,0.96,weatherlink.com 1.10,2013-09-01 02:03:00,
2013-09-01 00:20:00,71.2,71.0,32.10,WNW,299,0.0,3.0,98,0.00,,,0.96,weatherlink.com 1.10,2013-09-01 02:20:00,
2013-09-01 00:36:00,70.4,70.0,32.10,WNW,299,0.0,0.0,98,0.00,,,0.96,weatherlink.com 1.10,2013-09-01 02:36:00,
2013-09-01 00:52:00,70.4,70.0,32.07,WNW,299,0.0,0.0,98,0.00,,,0.96,weatherlink.com 1.10,2013-09-01 02:52:00,
2013-09-01 01:07:00,70.3,70.0,32.04,WNW,299,0.0,1.0,98,0.00,,,0.96,weatherlink.com 1.10,2013-09-01 03:07:00,
2013-09-01 01:24:00,70.2,70.0,32.04,WNW,299,0.0,1.0,98,0.00,,,0.96,weatherlink.com 1.10,2013-09-01 03:24:00,
2013-09-01 01:40:00,69.6,69.0,32.04,WNW,299,0.0,0.0,98,0.00,,,0.96,weatherlink.com 1.10,2013-09-01 03:40:00,
2013-09-01 01:56:00,69.5,69.0,32.04,WNW,299,0.0,0.0,99,0.00,,,0.96,weatherlink.com 1.10,2013-09-01 03:56:00,
2013-09-01 02:12:00,69.0,68.0,32.04,WNW,299,0.0,0.0,98,0.00,,,0.00,weatherlink.com 1.10,2013-09-01 04:12:00,
2013-09-01 02:28:00,69.1,69.0,32.04,WNW,299,0.0,1.0,99,0.00,,,0.00,weatherlink.com 1.10,2013-09-01 04:28:00,
2013-09-01 02:44:00,69.4,69.0,32.04,WNW,299,0.0,1.0,99,0.00,,,0.00,weatherlink.com 1.10,2013-09-01 04:44:00,
2013-09-01 03:00:00,69.5,69.0,32.04,WNW,299,0.0,0.0,99,0.00,,,0.00,weatherlink.com 1.10,2013-09-01 05:00:00,
2013-09-01 03:16:00,69.6,69.0,32.04,WNW,299,0.0,0.0,99,0.00,,,0.00,weatherlink.com 1.10,2013-09-01 05:16:00,
2013-09-01 03:32:00,69.3,69.0,32.04,WNW,299,0.0,0.0,99,0.00,,,0.00,weatherlink.com 1.10,2013-09-01 05:32:00,
2013-09-01 03:48:00,69.0,69.0,32.04,WNW,299,0.0,1.0,99,0.00,,,0.00,weatherlink.com 1.10,2013-09-01 05:48:00,
2013-09-01 04:04:00,68.8,69.0,32.04,WNW,299,0.0,1.0,99,0.01,,,0.01,weatherlink.com 1.10,2013-09-01 06:04:00,
2013-09-01 04:20:00,68.8,69.0,32.04,WNW,299,0.0,1.0,99,0.01,,,0.01,weatherlink.com 1.10,2013-09-01 06:20:00,
2013-09-01 04:36:00,68.5,68.0,32.04,WNW,299,0.0,0.0,99,0.01,,,0.01,weatherlink.com 1.10,2013-09-01 06:36:00,
2013-09-01 04:52:00,68.4,68.0,32.04,WNW,299,0.0,0.0,99,0.01,,,0.01,weatherlink.com 1.10,2013-09-01 06:52:00,
2013-09-01 05:08:00,68.4,68.0,32.04,WNW,299,0.0,0.0,99,0.00,,,0.01,weatherlink.com 1.10,2013-09-01 07:08:00,
2013-09-01 05:24:00,68.5,68.0,32.04,WNW,299,2.0,3.0,99,0.00,,,0.01,weatherlink.com 1.10,2013-09-01 07:24:00,
2013-09-01 05:40:00,68.5,68.0,32.04,WNW,299,0.0,0.0,99,0.00,,,0.01,weatherlink.com 1.10,2013-09-01 07:40:00,
2013-09-01 05:56:00,68.5,68.0,32.04,WNW,299,0.0,1.0,99,0.00,,,0.01,weatherlink.com 1.10,2013-09-01 07:56:00,
2013-09-01 06:12:00,68.7,69.0,32.04,WNW,299,0.0,2.0,100,0.00,,,0.01,weatherlink.com 1.10,2013-09-01 08:12:00,
2013-09-01 06:28:00,69.1,69.0,32.04,WNW,299,0.0,3.0,100,0.00,,,0.01,weatherlink.com 1.10,2013-09-01 08:28:00,
2013-09-01 06:44:00,69.3,69.0,32.04,WNW,299,2.0,3.0,100,0.00,,,0.01,weatherlink.com 1.10,2013-09-01 08:44:00,
2013-09-01 07:00:00,69.4,69.0,32.04,WNW,298,5.0,5.0,100,0.00,,,0.01,weatherlink.com 1.10,2013-09-01 09:00:00,
2013-09-01 07:17:00,69.3,69.0,32.04,WNW,298,0.0,4.0,100,0.00,,,0.01,weatherlink.com 1.10,2013-09-01 09:17:00,
2013-09-01 07:33:00,69.3,69.0,32.04,WNW,298,1.0,4.0,100,0.00,,,0.01,weatherlink.com 1.10,2013-09-01 09:33:00,
2013-09-01 07:49:00,69.3,69.0,32.04,WNW,298,0.0,3.0,100,0.00,,,0.01,weatherlink.com 1.10,2013-09-01 09:49:00,
2013-09-01 08:05:00,69.3,69.0,32.04,WNW,298,1.0,3.0,100,0.00,,,0.01,weatherlink.com 1.10,2013-09-01 10:05:00,
2013-09-01 08:22:00,69.3,69.0,32.04,WNW,298,0.0,3.0,100,0.00,,,0.01,weatherlink.com 1.10,2013-09-01 10:22:00,
2013-09-01 08:37:00,69.2,69.0,31.92,WNW,298,0.0,4.0,100,0.00,,,0.01,weatherlink.com 1.10,2013-09-01 10:37:00,
2013-09-01 08:53:00,69.2,69.0,31.92,WNW,298,2.0,3.0,100,0.00,,,0.01,weatherlink.com 1.10,2013-09-01 10:53:00,
2013-09-01 09:09:00,69.2,69.0,31.92,WNW,298,0.0,3.0,100,0.00,,,0.01,weatherlink.com 1.10,2013-09-01 11:09:00,
2013-09-01 09:25:00,69.2,69.0,31.92,WNW,298,0.0,0.0,100,0.00,,,0.01,weatherlink.com 1.10,2013-09-01 11:25:00,
2013-09-01 09:41:00,69.3,69.0,31.92,WNW,298,0.0,0.0,100,0.00,,,0.01,weatherlink.com 1.10,2013-09-01 11:41:00,
2013-09-01 09:57:00,69.3,69.0,31.92,WNW,298,0.0,1.0,100,0.00,,,0.01,weatherlink.com 1.10,2013-09-01 11:57:00,
2013-09-01 10:13:00,69.4,69.0,31.92,WNW,298,2.0,3.0,100,0.00,,,0.01,weatherlink.com 1.10,2013-09-01 12:13:00,
2013-09-01 10:29:00,69.6,70.0,31.92,WNW,290,2.0,5.0,100,0.00,,,0.01,weatherlink.com 1.10,2013-09-01 12:29:00,
2013-09-01 10:45:00,69.7,70.0,31.92,WNW,289,4.0,5.0,100,0.00,,,0.01,weatherlink.com 1.10,2013-09-01 12:45:00,
2013-09-01 11:01:00,69.9,70.0,31.92,West,278,3.0,6.0,100,0.00,,,0.01,weatherlink.com 1.10,2013-09-01 13:01:00,
2013-09-01 11:18:00,70.2,70.0,31.92,West,276,0.0,5.0,100,0.00,,,0.01,weatherlink.com 1.10,2013-09-01 13:18:00,
2013-09-01 11:34:00,71.1,71.0,31.92,West,265,3.0,6.0,100,0.00,,,0.01,weatherlink.com 1.10,2013-09-01 13:34:00,
2013-09-01 11:50:00,71.4,71.0,31.92,West,266,0.0,4.0,100,0.00,,,0.01,weatherlink.com 1.10,2013-09-01 13:50:00,
2013-09-01 12:05:00,71.9,72.0,31.92,SW,223,0.0,4.0,100,0.00,,,0.01,weatherlink.com 1.10,2013-09-01 14:05:00,
2013-09-01 12:22:00,73.4,73.0,31.92,SW,223,1.0,3.0,100,0.00,,,0.01,weatherlink.com 1.10,2013-09-01 14:22:00,
2013-09-01 12:38:00,74.8,74.0,31.92,SSW,213,1.0,3.0,98,0.00,,,0.01,weatherlink.com 1.10,2013-09-01 14:38:00,
2013-09-01 12:54:00,76.5,75.0,31.92,SSW,209,1.0,5.0,94,0.00,,,0.01,weatherlink.com 1.10,2013-09-01 14:54:00,
2013-09-01 13:10:00,78.3,75.0,31.92,SSW,194,0.0,1.0,90,0.00,,,0.01,weatherlink.com 1.10,2013-09-01 15:10:00,
2013-09-01 13:26:00,79.0,74.0,31.92,SSW,194,0.0,4.0,86,0.00,,,0.01,weatherlink.com 1.10,2013-09-01 15:26:00,
2013-09-01 13:42:00,80.3,75.0,31.92,East,101,2.0,5.0,84,0.00,,,0.01,weatherlink.com 1.10,2013-09-01 15:42:00,
2013-09-01 13:58:00,81.2,76.0,32.07,SSW,192,3.0,6.0,83,0.00,,,0.01,weatherlink.com 1.10,2013-09-01 15:58:00,
2013-09-01 14:14:00,82.1,77.0,32.07,South,187,1.0,5.0,84,0.00,,,0.01,weatherlink.com 1.10,2013-09-01 16:14:00,
2013-09-01 14:30:00,83.2,77.0,32.07,SSE,165,0.0,4.0,81,0.00,,,0.01,weatherlink.com 1.10,2013-09-01 16:30:00,
2013-09-01 14:46:00,83.7,77.0,32.07,SW,232,2.0,4.0,80,0.00,,,0.01,weatherlink.com 1.10,2013-09-01 16:46:00,
2013-09-01 15:02:00,84.1,76.0,32.07,WNW,303,2.0,4.0,78,0.00,,,0.01,weatherlink.com 1.10,2013-09-01 17:02:00,
2013-09-01 15:19:00,85.5,77.0,32.07,WSW,253,0.0,5.0,76,0.00,,,0.01,weatherlink.com 1.10,2013-09-01 17:19:00,
2013-09-01 15:34:00,86.3,78.0,32.07,ESE,123,0.0,4.0,76,0.00,,,0.01,weatherlink.com 1.10,2013-09-01 17:34:00,
2013-09-01 15:50:00,86.3,77.0,32.07,South,173,1.0,5.0,75,0.00,,,0.01,weatherlink.com 1.10,2013-09-01 17:50:00,
2013-09-01 16:06:00,85.9,77.0,31.92,SE,130,0.0,5.0,76,0.00,,,0.01,weatherlink.com 1.10,2013-09-01 18:06:00,
2013-09-01 16:23:00,85.8,77.0,31.92,SSE,154,0.0,8.0,74,0.00,,,0.01,weatherlink.com 1.10,2013-09-01 18:23:00,
2013-09-01 16:38:00,84.3,76.0,31.92,South,173,4.0,11.0,77,0.00,,,0.01,weatherlink.com 1.10,2013-09-01 18:38:00,
2013-09-01 16:54:00,85.5,76.0,31.92,WSW,252,4.0,13.0,74,0.00,,,0.01,weatherlink.com 1.10,2013-09-01 18:54:00,
2013-09-01 17:10:00,87.0,78.0,31.92,SSW,202,4.0,11.0,75,0.00,,,0.01,weatherlink.com 1.10,2013-09-01 19:10:00,
2013-09-01 17:27:00,86.4,77.0,31.85,SSW,196,5.0,10.0,73,0.00,,,0.01,weatherlink.com 1.10,2013-09-01 19:27:00,
2013-09-01 17:43:00,85.4,76.0,31.85,SSW,213,7.0,14.0,74,0.00,,,0.01,weatherlink.com 1.10,2013-09-01 19:43:00,
2013-09-01 17:58:00,84.4,76.0,31.85,SW,223,11.0,12.0,75,0.00,,,0.01,weatherlink.com 1.10,2013-09-01 19:58:00,
2013-09-01 18:14:00,76.1,71.0,31.85,WNW,294,10.0,37.0,84,0.00,,,0.01,weatherlink.com 1.10,2013-09-01 20:14:00,
2013-09-01 18:31:00,70.6,68.0,31.85,West,259,1.0,21.0,93,0.26,,,0.27,weatherlink.com 1.10,2013-09-01 20:31:00,
2013-09-01 18:46:00,70.0,69.0,31.85,NE,55,0.0,4.0,95,0.29,,,0.30,weatherlink.com 1.10,2013-09-01 20:46:00,
2013-09-01 19:02:00,69.9,69.0,31.85,NE,55,0.0,1.0,96,0.32,,,0.33,weatherlink.com 1.10,2013-09-01 21:02:00,
2013-09-01 19:19:00,70.1,69.0,31.85,NE,55,3.0,5.0,97,0.28,,,0.33,weatherlink.com 1.10,2013-09-01 21:19:00,
2013-09-01 19:34:00,69.9,69.0,31.85,NE,55,0.0,1.0,97,0.06,,,0.34,weatherlink.com 1.10,2013-09-01 21:34:00,
2013-09-01 19:50:00,69.9,69.0,31.85,NE,55,0.0,3.0,97,0.03,,,0.34,weatherlink.com 1.10,2013-09-01 21:50:00,
2013-09-01 20:06:00,69.9,69.0,31.85,East,92,2.0,5.0,98,0.02,,,0.35,weatherlink.com 1.10,2013-09-01 22:06:00,
2013-09-01 20:22:00,69.8,69.0,31.85,East,96,0.0,1.0,98,0.01,,,0.35,weatherlink.com 1.10,2013-09-01 22:22:00,
2013-09-01 20:38:00,69.8,69.0,31.85,East,96,0.0,1.0,98,0.01,,,0.35,weatherlink.com 1.10,2013-09-01 22:38:00,
2013-09-01 20:54:00,69.9,69.0,31.85,East,96,0.0,0.0,98,0.00,,,0.35,weatherlink.com 1.10,2013-09-01 22:54:00,
2013-09-01 21:10:00,70.0,69.0,31.85,East,96,0.0,0.0,98,0.00,,,0.35,weatherlink.com 1.10,2013-09-01 23:10:00,
2013-09-01 21:26:00,70.1,70.0,31.85,East,96,0.0,1.0,98,0.00,,,0.35,weatherlink.com 1.10,2013-09-01 23:26:00,
2013-09-01 21:42:00,70.1,70.0,31.85,East,96,0.0,0.0,98,0.00,,,0.35,weatherlink.com 1.10,2013-09-01 23:42:00,
2013-09-01 21:58:00,70.0,69.0,31.85,East,96,0.0,0.0,98,0.00,,,0.35,weatherlink.com 1.10,2013-09-01 23:58:00,
2013-09-01 22:14:00,69.9,70.0,31.85,East,96,0.0,0.0,99,0.00,,,0.35,weatherlink.com 1.10,2013-09-02 00:14:00,
2013-09-01 22:30:00,69.9,70.0,31.85,East,96,0.0,0.0,99,0.00,,,0.35,weatherlink.com 1.10,2013-09-02 00:30:00,
2013-09-01 22:46:00,69.8,70.0,31.85,East,96,0.0,1.0,99,0.00,,,0.35,weatherlink.com 1.10,2013-09-02 00:46:00,
2013-09-01 23:02:00,69.7,69.0,31.85,East,96,0.0,0.0,99,0.00,,,0.35,weatherlink.com 1.10,2013-09-02 01:02:00,
2013-09-01 23:18:00,69.5,69.0,31.85,East,96,0.0,0.0,99,0.00,,,0.35,weatherlink.com 1.10,2013-09-02 01:18:00,
2013-09-01 23:34:00,69.3,69.0,31.85,East,96,0.0,0.0,99,0.00,,,0.35,weatherlink.com 1.10,2013-09-02 01:34:00,
2013-09-01 23:50:00,69.5,69.0,31.85,East,96,0.0,0.0,99,0.00,,,0.35,weatherlink.com 1.10,2013-09-02 01:50:00,